Tracking 30101 objects as of 14-Dec-2024
HD Live streaming from Space Station
objects crossing your sky now

HGS 4 (GALAXY 4)

Track HGS 4 (GALAXY 4) now!
HGS 4 (GALAXY 4) is classified as:


NORAD ID: 22694
Int'l Code: 1993-039A
Perigee: 35,758.6 km
Apogee: 35,826.1 km
Inclination: 14.6 °
Period: 1,436.0 minutes
Semi major axis: 42163 km
RCS: 28.88 m2 (large)
Launch date: June 25, 1993
Source: United States (US)
Launch site: FRENCH GUIANA (FRGUI)
Your satellite tracking list
Your tracking list is empty




NASA's NSSDC Master Catalog

Two Line Element Set (TLE):
1 22694U 93039A   24348.79220080 -.00000085  00000-0  00000+0 0  9999
2 22694  14.5995 359.3103 0008000  26.8549  54.1027  1.00276655113471
Source of the keplerian elements: AFSPC